DECAYED
Showing default

FLOCK 4Y 29, 55030 (Decayed)

Orbit data source: Space-Track

FLOCK 4Y 29, 55030 was a payload satellite owned by Planet (US) in LEO that was launched on Tue, 03 Jan 2023 UTC via an FALCON 9 launch vehicle from the Air Force Eastern Test Range (AFETR). Payload-class satellites include a variety of spacecraft equipped with specific instruments for various scientific and technological missions. These include communications satellites like Starlink; space stations such as the ISS; scientific satellites like the Hubble; Earth observation satellites from companies like Planet Labs, Umbra, and HawkEye 360; GPS; miniature CubeSats for education and research; and military/defense satellites.

Not visible in the next 10 days
Identifier
55030, 2023-001X
Orbit
Decayed
Country
Flag of USUS
Related business
Manufacturer
Planet
Mission
Decayed Commercial Imaging
Bus & Motor
CUBESAT 3U, Unknown motor
Mass
5.7 kg wet, 5.7 kg dry
Launch date (UTC)
2023-01-03 (4 years ago)
Launch vehicle
FALCON 9
Launch site
Air Force Eastern Test Range (AFETR)
Object type
Payload
Rocket body
Debris
Shape & HBR
Box + 2 Pan, 1.0 m
Radar Cross Section
0.108 m², Medium (>0.1 m² and < 1m²)

Expand to show TLE details & history
Last TLE update: 1 year ago

TLE from 1 year ago
0 FLOCK 4Y 29
1 55030U 23001X   25130.75758416  .11663589  25031-5  10817-2 0  9997
2 55030  97.3398 206.6689 0014439 268.3953  91.5692 16.38475525131483
Epoch: 2025-05-10T18:10Z
TLE epoch observation values (Epoch: 2025-05-10T18:10:55.271Z)
Latitude
-0.00001°
Longitude
65.14382°
Altitude
173.385 km
Speed
7.802 km/s
True Right ascension
13h 46m 40s
True Declination
0° 00' 00"
Sunlit
Object was in full shadow at epoch
Visualization orbit readout
Latitude
Unknown
Longitude
Unknown
Altitude
Unknown
Speed
Unknown
Apparent Right ascension
Unknown
Apparent Declination
Unknown
Sunlit
N/A
Visualization observer readout
Local Sidereal Time
10:41:46
Azimuth
Unknown
Elevation
Unknown
Doppler factor
Unknown
Orbital elements
Apogee altitude
176.118 km
Perigee altitude
157.218 km
Semi-major axis
6,544.805 km
Eccentricity
0.00144
Inclination
97.3398°
RAAN
206.6689°
Arg. of periapsis
268.3953°
True anomaly
91.73459°
Mean anomaly
91.5692°
Eccentric anomaly
91.65189°
Mean motion
4.09919 °/min
Orbital period
87.82 mins
BSTAR
0.0010817
Loading maneuver chart data...
Computing Atmospheric mass density...
Loading historical data...
Loading historical data...
Loading historical data...
Loading historical data...
Loading historical data...
Loading historical data...
Loading historical data...

Documentation

Showing up to 5 results
|